CW7054 Weather Reports


Display with metric or nautical units.
time (UTC)temp
F
wind
direction
speed
MPH
gust
MPH
rain 1hr
in
rain 24hr
in
rain mn
in
humidity
%
barometer
mb
20260902194535 72 73 1.0 7.0 0.00 0.19 0.11 80 1019.1
20260902193020 72 66 2.0 9.0 0.00 0.19 0.11 79 1019.2
20260902191520 72 68 1.0 10.0 0.00 0.19 0.11 79 1019.4
20260902190019 72 72 0.0 8.0 0.00 0.19 0.11 78 1019.7
20260902184525 72 83 1.0 8.0 0.01 0.20 0.11 80 1019.7
20260902183018 71 67 1.0 9.0 0.01 0.20 0.11 79 1020.0
20260902181518 71 69 0.0 7.0 0.01 0.20 0.11 79 1020.1
20260902180019 71 69 1.0 5.0 0.01 0.20 0.11 79 1019.9
20260902174517 72 83 0.0 8.0 0.00 0.19 0.10 79 1019.9
20260902173024 72 69 1.0 9.0 0.00 0.19 0.10 78 1019.8
20260902171516 72 45 1.0 6.0 0.01 0.19 0.10 78 1020.0
20260902170019 72 76 3.0 9.0 0.01 0.19 0.10 78 1020.1
20260902164515 72 101 1.0 9.0 0.01 0.19 0.10 77 1020.0
20260902163014 73 67 2.0 11.0 0.01 0.19 0.10 77 1019.9
20260902161513 73 65 0.0 10.0 0.00 0.18 0.09 76 1020.2
20260902160015 73 78 1.0 8.0 0.01 0.18 0.09 78 1020.3
20260902154513 73 66 2.0 7.0 0.01 0.18 0.09 76 1020.4
20260902153012 73 84 0.0 9.0 0.01 0.18 0.09 76 1020.5
20260902151513 73 88 0.0 6.0 0.01 0.18 0.09 77 1020.5
20260902150008 72 75 3.0 10.0 0.00 0.17 0.08 75 1020.4
20260902144507 72 55 1.0 10.0 0.01 0.18 0.08 75 1020.3
20260902143006 72 87 2.0 6.0 0.01 0.18 0.08 74 1020.2
20260902141503 72 57 2.0 5.0 0.01 0.18 0.08 74 1020.0
20260902140004 72 80 3.0 10.0 0.01 0.18 0.08 76 1019.8
20260902134610 71 74 2.0 8.0 0.00 0.17 0.07 78 1019.6
20260902133103 70 84 0.0 6.0 0.01 0.17 0.07 81 1019.5
20260902131603 70 71 3.0 10.0 0.01 0.17 0.07 80 1019.3
20260902130053 70 47 3.0 9.0 0.01 0.17 0.07 79 1019.3
20260902124551 69 65 2.0 7.0 0.01 0.18 0.07 82 1019.5
20260902123047 68 79 2.0 9.0 0.00 0.17 0.06 83 1019.4
20260902121548 68 75 2.0 8.0 0.01 0.17 0.06 86 1019.6
20260902120044 67 46 1.0 9.0 0.01 0.17 0.06 87 1019.7
20260902114544 66 71 0.0 6.0 0.01 0.18 0.06 89 1019.8
20260902113046 66 74 3.0 8.0 0.01 0.18 0.06 90 1019.7
20260902111539 66 61 1.0 5.0 0.00 0.17 0.05 89 1019.7
20260902110041 65 50 1.0 5.0 0.00 0.17 0.05 89 1019.5
20260902104553 65 33 1.0 4.0 0.01 0.18 0.05 88 1019.3
20260902103034 65 63 0.0 6.0 0.01 0.18 0.05 86 1019.1
20260902101533 65 27 1.0 5.0 0.01 0.18 0.05 86 1019.0
20260902100032 65 54 1.0 5.0 0.01 0.18 0.05 85 1018.9
20260902094531 65 59 0.0 3.0 0.01 0.18 0.04 86 1018.8
20260902093033 65 79 2.0 7.0 0.01 0.18 0.04 85 1018.7
20260902091528 65 57 0.0 4.0 0.01 0.18 0.04 85 1018.6
20260902090029 65 57 1.0 5.0 0.01 0.18 0.04 84 1018.5
20260902084526 65 64 1.0 5.0 0.00 0.18 0.03 83 1018.6
20260902083024 65 80 2.0 7.0 0.00 0.18 0.03 84 1018.5
20260902081524 65 35 1.0 8.0 0.01 0.18 0.03 85 1018.5
20260902080023 65 11 1.0 7.0 0.01 0.18 0.03 87 1018.5
20260902074521 65 55 2.0 6.0 0.01 0.19 0.03 88 1018.3
20260902073020 65 43 1.0 4.0 0.01 0.19 0.03 89 1018.1
20260902071530 65 38 1.0 4.0 0.00 0.18 0.02 90 1017.8
20260902070018 65 42 1.0 6.0 0.01 0.18 0.02 90 1017.9
20260902064516 65 67 1.0 6.0 0.01 0.19 0.02 91 1017.8
20260902063016 65 67 0.0 6.0 0.01 0.19 0.02 92 1017.7
20260902061514 66 46 0.0 8.0 0.01 0.19 0.02 92 1017.5
20260902060011 67 53 2.0 8.0 0.00 0.18 0.01 93 1017.5
20260902054512 67 40 1.0 4.0 0.01 0.19 0.01 93 1017.6
20260902053010 66 40 1.0 5.0 0.01 0.19 0.01 93 1017.9
20260902051510 66 42 0.0 3.0 0.01 0.19 0.01 93 1017.9
20260902050009 66 40 0.0 4.0 0.01 0.19 0.01 93 1017.9
20260902044511 66 40 2.0 8.0 0.00 0.18 0.00 93 1017.4
20260902043004 66 69 0.0 8.0 0.01 0.18 0.00 93 1017.3
20260902041502 66 60 1.0 6.0 0.01 0.18 0.00 92 1017.3
20260902040000 66 56 0.0 5.0 0.01 0.18 0.00 92 1017.3
20260902034600 66 31 0.0 8.0 0.01 0.19 0.18 92 1017.4
20260902033112 67 47 1.0 9.0 0.00 0.18 0.17 92 1017.5
20260902031601 67 73 3.0 8.0 0.01 0.18 0.17 92 1017.4
20260902030058 66 83 3.0 7.0 0.01 0.18 0.17 91 1017.1
20260902024608 66 86 0.0 9.0 0.01 0.18 0.17 92 1017.1
20260902023058 66 84 4.0 13.0 0.01 0.18 0.17 92 1016.8
20260902021557 66 73 1.0 12.0 0.00 0.17 0.16 92 1016.6
20260902020118 66 62 2.0 9.0 0.01 0.17 0.16 92 1016.5
20260902014601 66 78 1.0 5.0 0.01 0.18 0.16 92 1016.2
20260902013054 66 24 4.0 11.0 0.01 0.18 0.16 92 1016.2
20260902011554 66 82 3.0 9.0 0.00 0.17 0.15 92 1015.9
20260902010054 66 46 2.0 9.0 0.01 0.17 0.15 92 1015.7
20260902004553 66 42 0.0 10.0 0.01 0.18 0.15 92 1016.0
20260902003051 66 59 3.0 12.0 0.01 0.18 0.15 92 1015.7
20260902001550 66 14 3.0 13.0 0.01 0.18 0.15 92 1015.7
20260902000049 66 57 1.0 10.0 0.01 0.17 0.14 92 1015.6
20260901234602 67 105 3.0 14.0 0.01 0.18 0.14 91 1015.5
20260901233052 67 65 3.0 13.0 0.01 0.18 0.14 91 1015.4
20260901231544 68 76 3.0 11.0 0.01 0.18 0.14 90 1015.1
20260901230047 68 19 2.0 13.0 0.01 0.17 0.13 90 1015.2
20260901224541 69 40 2.0 12.0 0.01 0.17 0.13 91 1014.9
20260901223037 71 84 2.0 9.0 0.01 0.17 0.13 92 1014.8
20260901221601 72 87 1.0 9.0 0.01 0.17 0.13 93 1014.7
20260901220035 73 57 0.0 4.0 0.01 0.16 0.12 92 1014.7
20260901214536 73 47 1.0 5.0 0.01 0.17 0.12 92 1014.8
20260901213038 73 58 0.0 5.0 0.01 0.17 0.12 92 1014.7
20260901211537 74 71 0.0 3.0 0.02 0.17 0.12 92 1014.6
20260901210037 74 71 1.0 5.0 0.01 0.16 0.11 92 1014.4
20260901204535 75 180 0.0 1.0 0.01 0.17 0.11 93 1014.3
20260901203045 75 180 0.0 0.0 0.01 0.17 0.11 94 1014.2
20260901201535 75 181 0.0 1.0 0.00 0.16 0.10 94 1014.1
20260901200026 74 181 0.0 2.0 0.00 0.16 0.10 94 1014.0